Weather History for Athens, OH

Change the Weather History Date:

Friday, October 26, 2012

  Actual Average (KPKB) Record (KPKB)
Temperature  
Mean Temperature 60 °F 52 °F  
Max Temperature 75 °F 63 °F 84 °F (2010)
Min Temperature 46 °F 41 °F 25 °F (1962)
Degree Days  
Heating Degree Days 4 13  
Month to date heating degree days 248  
Since 1 July heating degree days 324  
Cooling Degree Days 0 0  
Month to date cooling degree days 13  
Year to date cooling degree days 949  
Growing Degree Days 10 (Base 50)    
Moisture  
Dew Point 48 °F    
Average Humidity 75    
Maximum Humidity 92    
Minimum Humidity 47    
Precipitation  
Precipitation 0.00 in 0.09 in 0.86 in (2010)
Month to date precipitation 2.36  
Year to date precipitation 34.23  
Sea Level Pressure  
Sea Level Pressure 30.04 in    
Wind  
Wind Speed 3 mph (NNW)    
Max Wind Speed 15 mph    
Max Gust Speed 20 mph    
Visibility 10 miles    
Events      
T = Trace of Precipitation, MM = Missing Value Source: NWS Daily Summary

Daily Weather History Graph

Daily Weather History Graph

Search for Another Location

Airport:

Trip Planner

Search our weather history database for the weather conditions in past years. The results will help you decide how hot, cold, wet, or windy it might be!

Date:

Astronomy

Oct. 26, 2012 Rise Set
Actual Time 7:50 AM EDT 6:34 PM EDT
Civil Twilight 7:23 AM EDT 7:01 PM EDT
Nautical Twilight 6:51 AM EDT 7:33 PM EDT
Astronomical Twilight 6:20 AM EDT 8:04 PM EDT
Moon 4:48 PM EDT (10/26) 4:46 AM EDT (10/26)
Length of Visible Light 11h 38m
Length of Day
10h 43m
Waxing Gibbous, 91% of the Moon is Illuminated
Oct 26
Waxing Gibbous
Oct 29
Full
Nov 6
Last Quarter
Nov 13
New
Nov 20
First Quarter

Hourly Weather History & Observations

Time (EDT) Temp. Dew Point Humidity Pressure Visibility Wind Dir Wind Speed Gust Speed Precip Events Conditions
12:15 AM 51.4 °F 47.5 °F 86% 30.00 in 10.0 mi Calm Calm - N/A   Clear
12:35 AM 51.4 °F 46.9 °F 85% 30.00 in 10.0 mi Calm Calm - N/A   Clear
12:55 AM 49.5 °F 45.3 °F 86% 30.01 in 10.0 mi Calm Calm - N/A   Clear
1:15 AM 50.2 °F 46.6 °F 87% 30.01 in 10.0 mi Calm Calm - N/A   Clear
1:35 AM 48.6 °F 45.5 °F 89% 30.02 in 10.0 mi West 5.8 mph - N/A   Clear
1:55 AM 51.4 °F 46.9 °F 85% 30.01 in 10.0 mi Calm Calm - N/A   Clear
2:15 AM 50.0 °F 46.0 °F 86% 30.01 in 10.0 mi Calm Calm - N/A   Clear
2:35 AM 48.7 °F 45.1 °F 87% 30.02 in 10.0 mi Calm Calm - N/A   Clear
2:55 AM 48.6 °F 45.9 °F 90% 30.02 in 10.0 mi Calm Calm - N/A   Clear
3:15 AM 48.0 °F 44.8 °F 89% 30.02 in 10.0 mi Calm Calm - N/A   Clear
3:35 AM 49.1 °F 45.9 °F 89% 30.02 in 10.0 mi Calm Calm - N/A   Clear
3:55 AM 48.2 °F 45.5 °F 90% 30.02 in 10.0 mi Calm Calm - N/A   Clear
4:15 AM 48.7 °F 45.3 °F 88% 30.02 in 10.0 mi Calm Calm - N/A   Clear
4:35 AM 48.2 °F 44.2 °F 86% 30.03 in 10.0 mi Calm Calm - N/A   Clear
4:55 AM 47.7 °F 44.8 °F 90% 30.03 in 10.0 mi Calm Calm - N/A   Clear
5:15 AM 47.3 °F 44.2 °F 89% 30.03 in 10.0 mi Calm Calm - N/A   Clear
5:35 AM 48.4 °F 45.0 °F 88% 30.03 in 10.0 mi Calm Calm - N/A   Clear
5:55 AM 47.7 °F 44.4 °F 89% 30.04 in 10.0 mi Calm Calm - N/A   Clear
6:15 AM 46.6 °F 43.7 °F 90% 30.04 in 10.0 mi Calm Calm - N/A   Clear
6:35 AM 47.1 °F 44.1 °F 89% 30.04 in 10.0 mi Calm Calm - N/A   Clear
7:15 AM 46.4 °F 43.7 °F 90% 30.05 in 10.0 mi Calm Calm - N/A   Clear
7:35 AM 46.9 °F 44.4 °F 91% 30.06 in 10.0 mi West 3.5 mph - N/A   Scattered Clouds
7:55 AM 46.4 °F 44.1 °F 92% 30.06 in 10.0 mi Calm Calm - N/A   Scattered Clouds
8:15 AM 47.5 °F 45.3 °F 92% 30.07 in 10.0 mi Calm Calm - N/A   Mostly Cloudy
8:35 AM 49.1 °F 46.2 °F 90% 30.07 in 10.0 mi Calm Calm - N/A   Mostly Cloudy
8:55 AM 49.5 °F 46.8 °F 90% 30.08 in 10.0 mi Calm Calm - N/A   Scattered Clouds
9:15 AM 51.3 °F 48.2 °F 89% 30.08 in 10.0 mi Calm Calm - N/A   Clear
9:35 AM 54.0 °F 49.8 °F 86% 30.09 in 10.0 mi WNW 3.5 mph - N/A   Scattered Clouds
10:15 AM 59.9 °F 51.3 °F 73% 30.09 in 10.0 mi Calm Calm - N/A   Scattered Clouds
10:35 AM 61.2 °F 51.8 °F 71% 30.09 in 10.0 mi Calm Calm - N/A   Scattered Clouds
10:55 AM 65.5 °F 51.1 °F 60% 30.09 in 10.0 mi SSW 5.8 mph - N/A   Clear
11:35 AM 68.2 °F 52.2 °F 56% 30.09 in 10.0 mi WSW 8.1 mph - N/A   Scattered Clouds
12:15 PM 69.8 °F 51.8 °F 53% 30.09 in 10.0 mi WSW 4.6 mph - N/A   Clear
12:55 PM 71.1 °F 51.8 °F 50% 30.08 in 10.0 mi SSE 3.5 mph - N/A   Clear
1:15 PM 71.8 °F 51.4 °F 49% 30.07 in 10.0 mi Calm Calm - N/A   Clear
1:35 PM 72.9 °F 52.3 °F 48% 30.06 in 10.0 mi Calm Calm - N/A   Clear
1:55 PM 73.4 °F 53.2 °F 49% 30.04 in 10.0 mi NW 4.6 mph - N/A   Scattered Clouds
2:15 PM 73.4 °F 53.2 °F 49% 30.03 in 10.0 mi Calm Calm - N/A   Scattered Clouds
2:35 PM 75.2 °F 53.4 °F 47% 30.02 in 5.0 mi WSW 4.6 mph - N/A   Haze
2:55 PM 72.7 °F 53.1 °F 50% 30.01 in 10.0 mi SW 3.5 mph - N/A   Scattered Clouds
3:15 PM 74.1 °F 53.4 °F 48% 30.01 in 10.0 mi Calm Calm - N/A   Scattered Clouds
3:35 PM 73.8 °F 53.8 °F 50% 30.00 in 10.0 mi NNW 5.8 mph - N/A   Mostly Cloudy
3:55 PM 74.3 °F 53.4 °F 48% 29.99 in 10.0 mi Calm Calm - N/A   Scattered Clouds
4:15 PM 73.8 °F 54.9 °F 52% 29.99 in 10.0 mi WNW 3.5 mph - N/A   Clear
4:35 PM 72.5 °F 54.9 °F 54% 29.99 in 10.0 mi NNW 9.2 mph - N/A   Scattered Clouds
4:55 PM 70.5 °F 54.7 °F 57% 30.00 in 10.0 mi NW 12.7 mph 18.4 mph N/A   Scattered Clouds
5:15 PM 68.9 °F 54.1 °F 59% 30.00 in 10.0 mi NNW 11.5 mph 19.6 mph N/A   Mostly Cloudy
5:35 PM 66.2 °F 52.2 °F 61% 30.01 in 10.0 mi North 15.0 mph - N/A   Scattered Clouds
5:55 PM 63.3 °F 50.2 °F 62% 30.02 in 10.0 mi North 12.7 mph 17.3 mph N/A   Scattered Clouds
6:15 PM 60.3 °F 49.5 °F 68% 30.02 in 10.0 mi North 11.5 mph 17.3 mph N/A   Clear
6:35 PM 57.9 °F 48.9 °F 72% 30.04 in 10.0 mi NNW 11.5 mph 17.3 mph N/A   Scattered Clouds
6:55 PM 56.3 °F 48.4 °F 75% 30.04 in 10.0 mi NNW 10.4 mph - N/A   Scattered Clouds
7:15 PM 55.9 °F 48.2 °F 75% 30.05 in 10.0 mi North 9.2 mph - N/A   Scattered Clouds
7:35 PM 55.6 °F 48.2 °F 76% 30.06 in 10.0 mi North 8.1 mph - N/A   Scattered Clouds
7:55 PM 55.0 °F 48.2 °F 78% 30.06 in 10.0 mi North 8.1 mph - N/A   Scattered Clouds
8:15 PM 54.3 °F 47.8 °F 79% 30.06 in 10.0 mi North 9.2 mph - N/A   Clear
8:35 PM 53.8 °F 47.8 °F 80% 30.06 in 10.0 mi North 8.1 mph - N/A   Mostly Cloudy
8:55 PM 53.8 °F 47.8 °F 80% 30.06 in 10.0 mi North 8.1 mph - N/A   Overcast
9:15 PM 53.6 °F 47.5 °F 80% 30.06 in 10.0 mi North 9.2 mph - N/A   Overcast
9:35 PM 53.2 °F 47.3 °F 80% 30.06 in 10.0 mi North 11.5 mph - N/A   Overcast
9:55 PM 53.1 °F 46.8 °F 79% 30.05 in 10.0 mi North 11.5 mph 18.4 mph N/A   Overcast
10:15 PM 52.9 °F 46.9 °F 80% 30.06 in 10.0 mi North 8.1 mph - N/A   Overcast
10:35 PM 52.7 °F 46.8 °F 80% 30.05 in 10.0 mi North 8.1 mph - N/A   Overcast
10:55 PM 52.7 °F 46.8 °F 80% 30.04 in 10.0 mi North 6.9 mph - N/A   Overcast
11:15 PM 52.5 °F 46.8 °F 81% 30.04 in 10.0 mi North 8.1 mph 16.1 mph N/A   Overcast
11:35 PM 52.3 °F 46.9 °F 82% 30.03 in 10.0 mi North 8.1 mph - N/A   Overcast
11:55 PM 52.5 °F 46.8 °F 81% 30.03 in 10.0 mi North 5.8 mph - N/A   Overcast